CW7977 Corfu GR current weather conditions

sailwx.info

Wind from 282 at 4 knots gusting 8

Air temperature 16.7° C
Dewpoint 14.8° C

Last reported at 2014-Oct-22 19:07 UTC.
Time now 2014-Oct-23 02:33 UTC

Location: N 39°37' E 019°54'.
View on Google Maps.

See reports from other nearby stations

  
Tides and Currents Weather Stations Pressure Air Temp Water Temp Dewpoint Dewpoint Depression Visibility Wind Speed Wind Dir Waves Ship Positions
date/time (UTC)wind fromknots sea level pressurealtimeterstation pressurevisibilityair tempwater tempwave heightnotes
2014-Oct-22 19:07 282 4 gusting 8 16.7
2014-Oct-22 18:57 293 6 gusting 13 17.8
2014-Oct-22 18:47 298 7 gusting 13 18.9
2014-Oct-22 18:37 276 7 gusting 14 20.0
2014-Oct-22 18:27 200 7 gusting 19 20.0
2014-Oct-22 18:17 181 6 gusting 19 20.0
2014-Oct-22 18:07 157 5 gusting 12 20.0
2014-Oct-22 17:57 183 4 gusting 12 20.0
2014-Oct-22 17:47 191 5 gusting 12 20.0
2014-Oct-22 17:37 197 6 gusting 12 20.0
2014-Oct-22 17:27 153 4 gusting 12 19.4
2014-Oct-22 17:17 211 7 gusting 13 19.4
2014-Oct-22 17:07 188 6 gusting 13 19.4
2014-Oct-22 16:57 159 6 gusting 12 19.4
2014-Oct-22 16:47 165 6 gusting 12 19.4
2014-Oct-22 16:37 166 6 gusting 14 19.4
2014-Oct-22 16:27 164 6 gusting 12 19.4
2014-Oct-22 16:17 163 7 gusting 14 18.9
2014-Oct-22 16:07 138 6 gusting 12 18.9
2014-Oct-22 15:57 173 5 gusting 10 18.3
2014-Oct-22 15:47 165 6 gusting 8 17.8
2014-Oct-22 15:37 117 6 gusting 19 17.8
2014-Oct-22 15:27 140 10 gusting 15 17.8
2014-Oct-22 15:17 159 7 gusting 19 18.3
2014-Oct-22 15:07 174 2 gusting 11 18.9
2014-Oct-22 14:57 168 6 gusting 13 19.4
2014-Oct-22 14:47 142 2 gusting 13 19.4
2014-Oct-22 14:37 154 7 gusting 19 20.0
2014-Oct-22 14:27 161 11 gusting 25 20.0
2014-Oct-22 14:17 138 12 gusting 25 20.0
2014-Oct-22 14:07 143 13 gusting 19 20.6
2014-Oct-22 13:57 155 10 gusting 20 20.6
2014-Oct-22 13:47 171 10 gusting 22 20.6
2014-Oct-22 13:37 151 8 gusting 20 20.6
2014-Oct-22 13:27 151 10 gusting 20 20.6
2014-Oct-22 13:17 152 10 gusting 17 21.1
2014-Oct-22 13:07 150 10 gusting 18 21.1
2014-Oct-22 12:57 152 11 gusting 20 21.1
2014-Oct-22 12:47 134 10 gusting 15 20.6
2014-Oct-22 12:37 132 8 gusting 19 20.6
2014-Oct-22 12:27 145 11 gusting 19 20.0
2014-Oct-22 12:17 134 8 gusting 18 20.0
2014-Oct-22 12:07 186 8 gusting 18 19.4
2014-Oct-22 11:57 145 13 gusting 19 20.0
2014-Oct-22 11:47 158 8 gusting 20 20.0
2014-Oct-22 11:37 129 9 gusting 15 19.4
2014-Oct-22 11:27 131 11 gusting 19 18.9
2014-Oct-22 11:17 129 7 gusting 13 18.9
2014-Oct-22 11:07 142 6 gusting 17 18.9
2014-Oct-22 10:57 125 4 gusting 13 18.9
2014-Oct-22 10:47 151 7 gusting 18 18.9
2014-Oct-22 10:37 137 11 gusting 18 18.9
2014-Oct-22 10:27 144 7 gusting 19 19.4
2014-Oct-22 10:17 138 15 gusting 22 19.4
2014-Oct-22 10:07 148 6 gusting 15 19.4
2014-Oct-22 09:57 141 8 gusting 19 19.4
2014-Oct-22 09:47 148 12 gusting 19 19.4
2014-Oct-22 09:37 152 10 gusting 19 19.4
2014-Oct-22 09:27 163 11 gusting 19 18.9
2014-Oct-22 09:17 155 6 gusting 15 18.9
2014-Oct-22 09:07 150 10 gusting 15 18.9
2014-Oct-22 08:57 152 8 gusting 13 18.9
2014-Oct-22 08:47 155 6 gusting 12 19.4
2014-Oct-22 08:37 138 7 gusting 14 19.4
2014-Oct-22 08:27 141 7 gusting 13 19.4
2014-Oct-22 08:17 135 7 gusting 13 19.4
2014-Oct-22 08:07 140 6 gusting 13 20.0
2014-Oct-22 07:57 140 8 gusting 13 19.4
2014-Oct-22 07:47 131 7 gusting 13 19.4
2014-Oct-22 07:37 135 5 gusting 13 18.9
2014-Oct-22 07:27 128 6 gusting 8 18.9
2014-Oct-22 07:17 142 7 gusting 12 18.9
2014-Oct-22 07:07 142 6 gusting 12 18.9
2014-Oct-22 06:57 132 6 gusting 10 18.9
2014-Oct-22 06:47 140 6 gusting 11 18.9
2014-Oct-22 06:37 139 5 gusting 10 18.9
2014-Oct-22 06:27 146 7 gusting 15 18.9
2014-Oct-22 06:07 132 6 gusting 13 18.9
2014-Oct-22 05:57 144 6 gusting 8 18.3
2014-Oct-22 05:47 141 2 gusting 8 18.3
2014-Oct-22 05:37 154 4 gusting 12 18.3
2014-Oct-22 05:27 142 4 gusting 10 18.3
2014-Oct-22 05:17 139 6 gusting 10 18.3
2014-Oct-22 05:07 130 6 gusting 10 18.3
2014-Oct-22 04:57 124 2 gusting 11 18.3
2014-Oct-22 04:47 139 6 gusting 10 17.8
2014-Oct-22 04:37 136 6 gusting 11 17.8
2014-Oct-22 04:27 137 5 gusting 10 17.8
2014-Oct-22 04:17 136 6 gusting 12 17.8
2014-Oct-22 04:07 144 6 gusting 12 17.8
2014-Oct-22 03:57 108 6 gusting 12 17.8
2014-Oct-22 03:47 133 4 gusting 10 17.2
2014-Oct-22 03:37 144 6 gusting 7 16.7
2014-Oct-22 03:27 131 3 gusting 6 16.1
2014-Oct-22 03:17 155 0 gusting 1 16.1
2014-Oct-22 03:07 161 16.1
2014-Oct-22 02:57 225 16.1
2014-Oct-22 02:47 225 16.1
2014-Oct-22 02:37 225 15.6
2014-Oct-22 02:27 225 15.6
2014-Oct-22 02:17 225 15.6
2014-Oct-22 02:07 225 15.6
2014-Oct-22 01:57 225 15.6
2014-Oct-22 01:47 248 16.1
2014-Oct-22 01:37 236 0 gusting 4 16.1
2014-Oct-22 01:27 248 0 gusting 1 16.1
2014-Oct-22 01:17 214 0 gusting 1 16.1
2014-Oct-22 01:07 248 16.1
2014-Oct-22 00:57 243 16.1
2014-Oct-22 00:47 248 0 gusting 2 16.1
2014-Oct-22 00:37 248 16.1
2014-Oct-22 00:27 248 0 gusting 1 16.1
2014-Oct-22 00:17 225 16.1
2014-Oct-22 00:07 246 0 gusting 2 15.6
2014-Oct-21 23:57 244 2 gusting 2 15.6
2014-Oct-21 23:47 231 15.6
2014-Oct-21 23:37 245 0 gusting 1 16.1
2014-Oct-21 23:27 221 0 gusting 1 16.1
2014-Oct-21 23:17 230 0 gusting 1 16.1
2014-Oct-21 23:07 248 16.1
2014-Oct-21 22:57 225 16.1
2014-Oct-21 22:47 225 16.1
2014-Oct-21 22:37 270 16.1
2014-Oct-21 22:27 248 0 gusting 1 16.1
2014-Oct-21 22:17 202 16.1
2014-Oct-21 22:07 225 16.1
2014-Oct-21 21:57 248 16.1
2014-Oct-21 21:47 225 16.1
2014-Oct-21 21:37 233 16.7
2014-Oct-21 21:27 248 16.7
2014-Oct-21 21:17 229 0 gusting 2 16.7
2014-Oct-21 21:07 225 16.7
2014-Oct-21 20:57 234 0 gusting 2 16.7
2014-Oct-21 20:47 248 0 gusting 1 16.7
2014-Oct-21 20:37 225 16.7
2014-Oct-21 20:27 225 17.2
2014-Oct-21 20:17 248 17.2
2014-Oct-21 20:07 248 0 gusting 2 17.2
2014-Oct-21 19:57 270 17.2
2014-Oct-21 19:47 257 0 gusting 2 17.8
2014-Oct-21 19:37 225 17.8
2014-Oct-21 19:27 225 17.8
2014-Oct-21 19:17 225 17.8
2014-Oct-21 19:07 230 17.8
2014-Oct-21 18:57 248 17.8
2014-Oct-21 18:47 253 17.8
2014-Oct-21 18:37 248 18.3
2014-Oct-21 18:27 225 18.3
2014-Oct-21 18:17 225 18.3
2014-Oct-21 18:07 248 18.3
2014-Oct-21 17:57 221 18.3
2014-Oct-21 17:47 202 18.9
2014-Oct-21 17:37 248 18.9
2014-Oct-21 17:27 225 18.9
2014-Oct-21 17:17 270 18.9
2014-Oct-21 17:07 270 19.4
2014-Oct-21 16:57 225 19.4
2014-Oct-21 16:47 227 0 gusting 2 19.4
2014-Oct-21 16:37 217 0 gusting 0 20.0
2014-Oct-21 16:27 202 20.0
2014-Oct-21 16:17 262 20.0
2014-Oct-21 16:07 249 0 gusting 1 20.6
2014-Oct-21 15:57 248 20.6
2014-Oct-21 15:47 225 0 gusting 4 21.1
2014-Oct-21 15:37 231 1 gusting 4 21.1
2014-Oct-21 15:27 225 1 gusting 5 21.7
2014-Oct-21 15:17 248 1 gusting 5 21.7
2014-Oct-21 15:07 247 3 gusting 6 22.2
2014-Oct-21 14:57 245 2 gusting 6 22.2
2014-Oct-21 14:37 259 3 gusting 6 22.8
2014-Oct-21 14:27 227 4 gusting 6 23.3
2014-Oct-21 14:17 269 2 gusting 6 23.3
2014-Oct-21 14:07 235 5 gusting 6 23.3
2014-Oct-21 13:57 253 3 gusting 6 22.8
2014-Oct-21 13:37 157 4 gusting 6 21.7
2014-Oct-21 13:27 142 0 gusting 4 21.1
2014-Oct-21 13:17 112 2 gusting 4 21.7
2014-Oct-21 13:07 142 2 gusting 6 21.7
2014-Oct-21 12:57 124 5 gusting 7 21.7
2014-Oct-21 12:47 132 6 gusting 6 22.2
2014-Oct-21 12:37 154 2 gusting 6 22.2
2014-Oct-21 12:27 094 4 gusting 6 22.8
2014-Oct-21 12:17 135 4 gusting 7 22.2
2014-Oct-21 12:07 149 4 gusting 6 22.2
2014-Oct-21 11:57 147 6 gusting 7 22.8
2014-Oct-21 11:47 127 4 gusting 6 22.8
2014-Oct-21 11:37 142 1 gusting 6 22.8
2014-Oct-21 11:27 167 2 gusting 6 22.8
2014-Oct-21 11:17 148 4 gusting 6 22.2
2014-Oct-21 11:07 157 4 gusting 6 22.2
2014-Oct-21 10:57 126 3 gusting 6 21.7
2014-Oct-21 10:47 138 4 gusting 6 21.7
2014-Oct-21 10:37 098 0 gusting 6 22.2
2014-Oct-21 10:27 145 4 gusting 6 22.2
2014-Oct-21 10:17 126 1 gusting 6 22.2
2014-Oct-21 10:07 139 2 gusting 6 22.2
2014-Oct-21 09:57 129 4 gusting 7 21.7
2014-Oct-21 09:47 123 3 gusting 8 21.7
2014-Oct-21 09:37 100 3 gusting 6 21.7
2014-Oct-21 09:27 158 2 gusting 6 21.7
2014-Oct-21 09:17 153 2 gusting 5 21.7
2014-Oct-21 09:07 154 4 gusting 6 21.7
2014-Oct-21 08:57 201 2 gusting 6 21.7
2014-Oct-21 08:47 155 2 gusting 6 21.1
2014-Oct-21 08:37 150 1 gusting 5 21.1
2014-Oct-21 08:27 142 1 gusting 6 21.1
2014-Oct-21 08:17 104 1 gusting 6 21.1
2014-Oct-21 08:07 074 1 gusting 2 20.6
2014-Oct-21 07:57 151 1 gusting 4 20.0
2014-Oct-21 07:47 111 0 gusting 4 19.4
2014-Oct-21 07:37 115 0 gusting 2 19.4
2014-Oct-21 07:27 135 0 gusting 2 18.9
2014-Oct-21 07:17 158 0 gusting 1 18.3
2014-Oct-21 07:07 182 17.8
2014-Oct-21 06:57 150 17.2
2014-Oct-21 06:47 225 16.7
2014-Oct-21 06:37 225 16.1
2014-Oct-21 06:27 225 16.1
2014-Oct-21 06:17 225 15.6
2014-Oct-21 06:07 248 15.0
2014-Oct-21 05:57 248 15.0
2014-Oct-21 05:47 248 14.4
2014-Oct-21 05:37 225 0 gusting 0 14.4
2014-Oct-21 05:27 202 14.4
2014-Oct-21 05:17 202 14.4
2014-Oct-21 05:07 248 14.4
2014-Oct-21 04:57 248 14.4
2014-Oct-21 04:47 232 0 gusting 1 14.4
2014-Oct-21 04:37 225 14.4
2014-Oct-21 04:27 248 14.4
2014-Oct-21 04:17 225 14.4
2014-Oct-21 04:07 248 14.4
2014-Oct-21 03:57 248 0 gusting 2 14.4
2014-Oct-21 03:47 248 14.4
2014-Oct-21 03:37 248 14.4
2014-Oct-21 03:27 225 14.4
2014-Oct-21 03:17 225 14.4
2014-Oct-21 03:07 225 14.4
2014-Oct-21 02:57 232 14.4
2014-Oct-21 02:47 248 0 gusting 2 14.4
2014-Oct-21 02:37 248 14.4
2014-Oct-21 02:27 225 14.4
2014-Oct-21 02:17 248 0 gusting 0 14.4
2014-Oct-21 02:07 262 14.4